This demonstration page uses our WeatherBlox Daily Observations layout. Learn more.

40.92945, -100.16068

Hourly Observations for December 17, 2015

Temp ( °F °C ) Dew Point ( °F °C ) Humidity (%) Winds ( mph kmh ) Pressure ( in mb ) Visibility ( mi km ) Precip ( " mm )
12:15 am 00:15 Cloudy 17 -8.6 14 -10 90 90 W 8 13 30.18 1022 10 16.0934 N/A
12:35 am 00:35 Cloudy 18 -7.7 15 -9.3 88 88 W 7 11 30.15 1021 10 16.0934 N/A
12:55 am 00:55 Cloudy 19 -7.5 16 -9 89 89 W 6 9 30.15 1021 10 16.0934 N/A
1:15 am 01:15 Cloudy 19 -7.3 16 -8.9 88 88 W 7 11 30.15 1021 10 16.0934 N/A
1:35 am 01:35 Cloudy 19 -7 17 -8.5 89 89 WNW 6 9 30.15 1021 10 16.0934 N/A
1:55 am 01:55 Cloudy 19 -7.1 16 -8.7 89 89 WNW 6 9 30.15 1021 10 16.0934 N/A
2:15 am 02:15 Cloudy 18 -7.8 15 -9.5 88 88 W 6 9 30.15 1021 10 16.0934 N/A
2:35 am 02:35 Cloudy 17 -8.4 14 -9.9 89 89 WNW 6 9 30.15 1021 10 16.0934 N/A
2:55 am 02:55 Cloudy 17 -8.2 15 -9.6 90 90 WNW 5 7 30.15 1021 10 16.0934 N/A
3:15 am 03:15 Mostly Cloudy 16 -8.8 13 -10.3 89 89 WNW 9 15 30.18 1022 10 16.0934 N/A
3:35 am 03:35 Mostly Cloudy 17 -8.4 15 -9.7 90 90 WNW 8 13 30.15 1021 10 16.0934 N/A
3:55 am 03:55 Cloudy 19 -7.3 16 -8.8 89 89 WNW 6 9 30.15 1021 10 16.0934 N/A
4:15 am 04:15 Cloudy 17 -8.3 14 -9.8 89 89 NW 7 11 30.15 1021 10 16.0934 N/A
4:35 am 04:35 Partly Cloudy 15 -9.4 13 -10.8 90 90 WNW 6 9 30.18 1022 10 16.0934 N/A
4:55 am 04:55 Partly Cloudy 14 -10 12 -11.3 90 90 W 7 11 30.18 1022 10 16.0934 N/A
5:15 am 05:15 Mostly Cloudy 15 -9.3 13 -10.5 91 91 WNW 7 11 30.21 1023 10 16.0934 N/A
5:35 am 05:35 Cloudy 17 -8.4 15 -9.7 90 90 WNW 7 11 30.21 1023 10 16.0934 N/A
5:55 am 05:55 Cloudy 18 -7.7 15 -9.3 88 88 NW 6 9 30.21 1023 10 16.0934 N/A
6:15 am 06:15 Cloudy 18 -7.6 16 -9.1 89 89 NW 7 11 30.21 1023 10 16.0934 N/A
6:35 am 06:35 Cloudy 20 -6.7 17 -8.4 88 88 WNW 6 9 30.21 1023 10 16.0934 N/A
6:55 am 06:55 Cloudy 21 -6.2 18 -8 87 87 WNW 6 9 30.21 1023 10 16.0934 N/A
7:15 am 07:15 Cloudy 21 -6.1 18 -8 87 87 NW 6 9 30.21 1023 10 16.0934 N/A
7:35 am 07:35 Cloudy 21 -6.2 18 -8 87 87 NW 6 9 30.21 1023 10 16.0934 N/A
7:55 am 07:55 Cloudy 21 -6.2 17 -8.1 87 87 NW 6 9 30.21 1023 10 16.0934 N/A
8:15 am 08:15 Mostly Cloudy 21 -6 17 -8.4 83 83 NNW 5 7 30.21 1023 10 16.0934 N/A
8:35 am 08:35 Partly Cloudy 18 -7.8 14 -10.1 84 84 NW 7 11 30.24 1024 10 16.0934 N/A
8:55 am 08:55 Mostly Cloudy 18 -7.7 14 -9.9 84 84 NW 6 9 30.24 1024 10 16.0934 N/A
9:15 am 09:15 Cloudy 20 -6.4 17 -8.6 85 85 NW 6 9 30.24 1024 10 16.0934 N/A
9:35 am 09:35 Cloudy 21 -5.9 17 -8.2 84 84 WNW 7 11 30.24 1024 10 16.0934 N/A
9:55 am 09:55 Cloudy 22 -5.5 18 -8 83 83 WNW 8 13 30.24 1024 10 16.0934 N/A
10:15 am 10:15 Cloudy 22 -5.3 18 -7.9 82 82 NW 10 17 30.27 1025 10 16.0934 N/A
10:35 am 10:35 Cloudy 23 -5.2 18 -7.9 82 82 NW 12 19 30.27 1025 10 16.0934 N/A
10:55 am 10:55 Cloudy 23 -5 18 -7.8 81 81 NW 10 17 30.27 1025 10 16.0934 N/A
11:15 am 11:15 Cloudy 24 -4.5 18 -7.9 77 77 NW 9 15 30.24 1024 10 16.0934 N/A
11:35 am 11:35 Cloudy 24 -4.5 17 -8.6 73 73 NW 12 19 30.24 1024 10 16.0934 N/A
11:55 am 11:55 Cloudy 24 -4.6 16 -8.7 73 73 NNW 14 22 30.27 1025 10 16.0934 N/A
12:15 pm 12:15 Cloudy 24 -4.4 17 -8.2 75 75 NW 14 22 30.24 1024 10 16.0934 N/A
12:35 pm 12:35 Mostly Cloudy 24 -4.2 18 -7.9 76 76 NW 12 19 30.24 1024 10 16.0934 N/A
12:55 pm 12:55 Mostly Cloudy 25 -3.8 18 -7.9 73 73 NW 13 20 30.24 1024 10 16.0934 N/A
1:15 pm 13:15 Mostly Cloudy 25 -3.7 17 -8.3 71 71 NW 10 17 30.24 1024 10 16.0934 N/A
1:35 pm 13:35 Partly Cloudy 26 -3.6 17 -8.2 71 71 NW 10 17 30.21 1023 10 16.0934 N/A
1:55 pm 13:55 Sunny 26 -3.3 18 -8 70 70 NNW 10 17 30.21 1023 10 16.0934 N/A
2:15 pm 14:15 Partly Cloudy 27 -2.6 19 -7.5 69 69 NW 12 19 30.21 1023 10 16.0934 N/A
2:35 pm 14:35 Partly Cloudy 28 -2.5 19 -7.5 69 69 NW 10 17 30.21 1023 10 16.0934 0.01 0.254
2:55 pm 14:55 Partly Cloudy 27 -2.6 18 -7.6 69 69 NW 9 15 30.21 1023 10 16.0934 0.01 0.254
3:15 pm 15:15 Sunny 28 -2.5 19 -7.5 69 69 NW 10 17 30.21 1023 10 16.0934 N/A
3:35 pm 15:35 Mostly Cloudy 28 -2.2 18 -7.7 66 66 NW 13 20 30.21 1023 10 16.0934 N/A
3:55 pm 15:55 Mostly Cloudy 28 -2.5 17 -8.4 64 64 NW 12 19 30.21 1023 10 16.0934 N/A
4:15 pm 16:15 Partly Cloudy 26 -3.1 17 -8.5 67 67 NW 8 13 30.21 1023 10 16.0934 N/A
4:35 pm 16:35 Sunny 25 -4 16 -8.7 70 70 WNW 7 11 30.24 1024 10 16.0934 N/A
4:55 pm 16:55 Sunny 23 -5 16 -9.1 73 73 WNW 7 11 30.27 1025 10 16.0934 N/A
5:15 pm 17:15 Clear 20 -6.5 14 -10 76 76 W 8 13 30.27 1025 10 16.0934 N/A
5:35 pm 17:35 Clear 20 -6.8 14 -10 78 78 W 9 15 30.27 1025 10 16.0934 N/A
5:55 pm 17:55 Clear 17 -8.1 12 -10.9 81 81 W 9 15 30.3 1026 10 16.0934 0 0
6:15 pm 18:15 Clear 16 -9 11 -11.7 81 81 W 8 13 30.3 1026 10 16.0934 N/A
6:35 pm 18:35 Clear 16 -9.1 11 -11.4 84 84 W 9 15 30.3 1026 10 16.0934 N/A
6:55 pm 18:55 Clear 16 -8.8 12 -11 84 84 W 8 13 30.3 1026 10 16.0934 N/A
7:15 pm 19:15 Clear 15 -9.6 11 -11.7 85 85 W 8 13 30.33 1027 10 16.0934 N/A
7:35 pm 19:35 Clear 15 -9.5 11 -11.7 84 84 W 7 11 30.3 1026 10 16.0934 N/A
7:55 pm 19:55 Clear 12 -11.1 8 -13.1 85 85 W 7 11 30.33 1027 10 16.0934 N/A
8:15 pm 20:15 Clear 12 -11 10 -12.5 89 89 W 7 11 30.33 1027 10 16.0934 N/A
8:35 pm 20:35 Clear 10 -12 8 -13.6 88 88 WNW 3 6 30.33 1027 10 16.0934 N/A
8:55 pm 20:55 Clear 8 -13.5 5 -15.1 88 88 W 7 11 30.36 1028 10 16.0934 N/A
9:15 pm 21:15 Clear 5 -14.9 2 -16.7 86 86 W 7 11 30.36 1028 10 16.0934 N/A
9:35 pm 21:35 Clear 8 -13.1 6 -14.5 89 89 W 9 15 30.36 1028 10 16.0934 N/A
9:55 pm 21:55 Clear 9 -12.8 6 -14.3 89 89 W 8 13 30.36 1028 10 16.0934 N/A
10:15 pm 22:15 Clear 8 -13.5 5 -15.1 88 88 W 7 11 30.36 1028 10 16.0934 N/A
10:35 pm 22:35 Clear 6 -14.3 3 -15.9 88 88 W 6 9 30.36 1028 10 16.0934 N/A
10:55 pm 22:55 Clear 6 -14.4 3 -16.2 86 86 W 6 9 30.36 1028 10 16.0934 N/A
11:15 pm 23:15 Clear 7 -13.7 5 -15.1 89 89 W 8 13 30.36 1028 10 16.0934 N/A
11:35 pm 23:35 Clear 10 -12.5 7 -14.1 88 88 WSW 8 13 30.33 1027 10 16.0934 N/A
11:55 pm 23:55 Clear 9 -12.6 6 -14.2 88 88 W 7 11 30.36 1028 10 16.0934 N/A

Powered by AerisWeather